Regional Weather Roundup
Issued by NWS

Home | Current Version | Previous Version | Text Only | Print | Product List | Glossary On
Versions: 1 2 3 4 5 6 7 8 9 10 11 12 13 14 15 16 17 18 19 20 21 22 23 24 25 26 27 28
000
ASUS44 KBMX 090210
RWRAL

ALABAMA REGIONAL WEATHER ROUNDUP
NATIONAL WEATHER SERVICE BIRMINGHAM AL
800 PM CST THU DEC 08 2016

NOTE: "FAIR" INDICATES FEW OR NO CLOUDS BELOW 12,000 FEET
WITH NO SIGNIFICANT WEATHER AND/OR OBSTRUCTIONS TO VISIBILITY.

THE REMARK "TC" DENOTES TEMPERATURE IN DEGREES CELSIUS.

ALZ001>011-014-016>018-020-090300-
NORTH ALABAMA

CITY           SKY/WX    TMP DP  RH WIND       PRES   REMARKS
MUSCLE SHOALS  PTCLDY    34  16  47 NW8       30.50R WCI  27
HUNTSVILLE     PTCLDY    36  18  48 NW8       30.45R WCI  30
DECATUR        CLEAR     34  18  52 NW13      30.47R WCI  25
HALEYVILLE     FAIR      32  21  64 NW7       30.48R WCI  26
GADSDEN        CLOUDY    34  27  75 CALM      30.42R
$$

ALZ012-013-022-023-030>036-040>044-090300-
WEST CENTRAL ALABAMA

CITY           SKY/WX    TMP DP  RH WIND       PRES   REMARKS
TUSCALOOSA     CLOUDY    39  21  48 N6        30.48R WCI  35
$$

ALZ015-024>027-033>036-040>044-090300-
CENTRAL ALABAMA

CITY           SKY/WX    TMP DP  RH WIND       PRES   REMARKS
BIRMINGHAM     MOCLDY    39  22  50 NW7       30.45R WCI  34
MONTGOMERY     PTCLDY    42  21  43 NW3       30.43R
SHELBY CO ARPT CLOUDY    41  23  48 NW5       30.43R
MAXWELL AFB    PTCLDY    40  26  56 W3        30.41R
GREENVILLE     FAIR      43  24  47 N10       30.39R
$$

ALZ019-021-028-029-037-038-045>048-090300-
EAST CENTRAL ALABAMA

CITY           SKY/WX    TMP DP  RH WIND       PRES   REMARKS
ANNISTON       PTCLDY    38  22  52 W5        30.41S WCI  34
ALEXANDER CITY MOCLDY    42  23  46 N10       30.39S
AUBURN         CLOUDY    40  25  55 N6        30.38R
$$

ALZ051>064-090300-
SOUTHWEST ALABAMA

CITY           SKY/WX    TMP DP  RH WIND       PRES   REMARKS
MOBILE         PTCLDY    45  27  49 N14       30.42R
BROOKLEY FIELD CLOUDY    49  30  48 N16       30.42R
EVERGREEN      CLEAR     43  27  53 N5        30.41R
$$

ALZ049-050-065>069-090300-
SOUTHEAST ALABAMA

CITY           SKY/WX    TMP DP  RH WIND       PRES   REMARKS
DOTHAN         CLOUDY    45  31  58 N13       30.38R
OZARK          CLOUDY    46  26  44 N10       30.35F
TROY           CLEAR     42  26  53 N5        30.39R
EUFAULA        FAIR      44  25  47 N5        30.37R
$$




USA.gov is the U.S. government's official web portal to all federal, state and local government web resources and services.